Regional Weather Roundup
Issued by NWS

Home | Current Version | Previous Version | Text Only | Print | Product List | Glossary Off
Versions: 1 2 3 4 5 6 7 8 9 10 11 12 13 14 15 16 17 18 19 20 21 22 23 24 25 26 27 28 29 30 31 32 33 34 35 36 37 38 39 40 41 42 43 44 45 46 47 48

000
ASUS45 KSLC 090310
RWRUT

UTAH REGIONAL WEATHER ROUNDUP
NATIONAL WEATHER SERVICE SALT LAKE CITY UT
900 PM MDT TUE JUL 08 2014

UTZ001>011-023>025-090400-

NORTHERN UTAH

CITY           SKY/WX    TMP DP  RH WIND       PRES   REMARKS
HILL AFB       CLEAR     87  44  22 E7        30.01S
LOGAN          CLEAR     82  54  37 CALM      29.98R
OGDEN          CLEAR     88  41  19 CALM      29.97S
PROVO AIRPORT  PTCLDY    84  46  26 S7        30.03R
SALT LAKE CITY MOCLDY    89  38  16 N6        29.95S
VERNAL         PTCLDY    80  42  25 SW6       30.04R
WENDOVER       PTCLDY    91  39  16 E3        29.96R
HEBER CITY     PTCLDY    81  39  22 S9        30.10R
WEST JORDAN    CLEAR     90  48  24 SW8       30.01R

$$

UTZ012>022-026-027-090400-

SOUTHERN UTAH

CITY           SKY/WX    TMP DP  RH WIND       PRES   REMARKS
BRYCE CANYON   MOCLDY    69  45  41 N6        30.31R
CEDAR CITY     PTCLDY    78  46  32 W5        30.12R
MILFORD        MOCLDY    84  45  25 SW10      30.05R
MOAB/CYNLANDS  CLEAR     88  40  18 SW15      29.99F
PRICE          MOCLDY    83  35  18 CALM      30.12R
ST GEORGE      PTCLDY    93  48  21 SW18G28   29.92R HX  90
KANAB          CLOUDY    81  48  32 SE20G26   30.14R

$$

REGIONAL REPORTS     COLORADO/ARIZONA

CITY           SKY/WX    TMP DP  RH WIND       PRES   REMARKS
CRAIG, CO      MOCLDY    67  42  40 CALM      30.12S
GRAND JUNCTION MOCLDY    85  40  20 S3        30.01R
RIFLE          PTCLDY    81  37  20 NW16      30.09R
MONTROSE       MOCLDY    80  41  24 S10       30.15R
CORTEZ         CLEAR     72  50  45 SE12      30.22R
PAGE, AZ       LGT RAIN  77  55  46 S18G32    30.05R
GRAND CANYON   CLOUDY    59  57  93 E5        30.28F
KINGMAN        TSTM      71  63  75 SE14      30.09F
FLAGSTAFF      MOCLDY    65  49  56 CALM      30.32S

$$

REGIONAL REPORTS    NEVADA/IDAHO/WYOMING

CITY           SKY/WX    TMP DP  RH WIND       PRES   REMARKS
LAS VEGAS, NV  CLOUDY    88  55  32 S9        29.84R
ELY            CLOUDY    72  48  42 SE10G21   30.19F
ELKO           MOCLDY    81  44  27 SW6       30.09R
POCATELLO, ID  CLEAR     80  43  26 S9        30.00R
BURLEY         PTCLDY    75  55  49 S8        29.95F
EVANSTON, WY   PTCLDY    76  36  23 NW7       30.23R
ROCK SPRINGS   MOCLDY    78  29  16 NW7       30.17R

$$


USA.gov is the U.S. government's official web portal to all federal, state and local government web resources and services.